STARLINK-32076 (60350 NORAD) Tracking and Keplerian Element Data

This shows tracking and keplerian element data for the satellite.

Feedback or suggestion? Click here.




ElementValue
Catalog60350
NameSTARLINK-32076
Epoch Orbit1113
Epoch Day286.74010181
Epoch Year2024
RAAN297.9743
Inclination53.161
Eccentricity0.0001517
Argument of Perigee122.0247
Mean Anonmoly238.0901
Mean Motion15.30147314
Decay Rate-9.632E-05
L11 60350U 24136X 24286.74010181 -.00009632 00000+0 -31399-3 0 9993
L22 60350 53.1610 297.9743 0001517 122.0247 238.0901 15.30147314 11133



Live tracking and technical data element details for STARLINK-32076 (NORAD 60350). STARLINK-32076 can be tracked NOW for your location showing map with azimuth and elevation plus other details from your city location.







IsCatalogInMostPopularTable: catalog: 60350, numindb: 7
Update: records affected: 1



GetName: 60350 STARLINK-32076

Hit Count: updated at: Tue, 03 Dec 2024 02:22:52 GMT